Home > Weather > Burgdorf > Past weeks

Flag for Germany Weather for the Past 2 Weeks in Burgdorf, Lower Saxony, Germany

Now
43 °F

Broken clouds.


Feels Like: 34 °F
Forecast: 33 / 41 °F
Wind: 20 mph from Southwest

Location: Celle Airport

Current Time: Feb 11, 2016 at 12:55:30 PM

Latest Report: Feb 11, 2016 at 12:20 PM


Visibility: N/A

Pressure: 29.56 "Hg

Humidity: 71%

Dew point: 34 °F

Location of BurgdorfLocation

Historic Weather in Burgdorf — Graph

°F

Burgdorf Temperature Yesterday

Maximum temperature yesterday: 41 °F (at 7:20 PM)
Minimum temperature yesterday: 34 °F (at 12:00 AM)
Average temperature yesterday: 38 °F

High & Low Weather Summary for the Past Weeks

 TemperatureHumidityPressure
High55 °F (Feb 7, 1:20 PM)100% (Jan 31, 11:20 PM)30.27 "Hg (Jan 31, 11:20 PM)
Low34 °F (Feb 9, 11:20 PM)55% (Feb 7, 1:20 PM)28.80 "Hg (Feb 9, 8:20 PM)
Average44 °F80%29.74 "Hg
* Reported Jan 27 11:20 AM — Feb 11 11:20 AM, Burgdorf, Weather by CustomWeather, © 2016

Note: Actual official high and low records may vary slightly from our data, if they occured in-between our weather recording intervals... More about our weather records

Advertising

Burgdorf Weather History for the Previous 24 Hours

 ConditionsComfort  
Time TempWeatherWind HumidityBarometerVisibility
11:20 AM
Thu, Feb 11
41 °FScattered clouds.18 mph76%29.56 "HgN/A
10:20 AM39 °FScattered clouds.17 mph81%29.56 "HgN/A
9:20 AM39 °FPassing clouds.14 mph75%29.53 "HgN/A
8:20 AM37 °FPassing clouds.13 mph81%29.53 "HgN/A
7:20 AM37 °FPassing clouds.14 mph81%29.53 "HgN/A
6:20 AM37 °FPassing clouds.13 mph81%29.50 "HgN/A
5:20 AM37 °FPassing clouds.12 mph87%29.50 "HgN/A
4:20 AM39 °FPassing clouds.14 mph81%29.47 "HgN/A
3:20 AM41 °FPartly cloudy.16 mph81%29.45 "HgN/A
2:20 AM39 °FPartly cloudy.14 mph87%29.45 "HgN/A
1:20 AM41 °FPassing clouds.15 mph87%29.42 "HgN/A
12:20 AM41 °FPassing clouds.17 mph87%29.39 "HgN/A
11:20 PM
Wed, Feb 10
41 °FSprinkles. Partly cloudy.15 mph87%29.36 "HgN/A
10:20 PM41 °FPartly cloudy.16 mph87%29.36 "HgN/A
9:20 PM41 °FSprinkles. Partly cloudy.14 mph87%29.33 "Hg6 mi
8:20 PM41 °FPartly cloudy.14 mph87%29.33 "HgN/A
7:20 PM41 °FPartly cloudy.9 mph81%29.33 "HgN/A
6:20 PM39 °FPassing clouds.8 mph87%29.30 "HgN/A
5:20 PM39 °FBroken clouds.10 mph93%29.30 "Hg5 mi
4:50 PM39 °FPartly sunny.9 mph93%29.30 "Hg5 mi
4:20 PM39 °FDrizzle. Partly sunny.7 mph93%29.30 "Hg4 mi
3:20 PM39 °FDrizzle. Partly sunny.12 mph87%29.27 "Hg6 mi
2:20 PM39 °FLight rain. Broken clouds.13 mph87%29.27 "HgN/A
1:20 PM39 °FBroken clouds.12 mph87%29.27 "HgN/A
12:20 PM37 °FBroken clouds.12 mph93%29.27 "HgN/A
Weather by CustomWeather, © 2016

See weather overviewHow to use our weather pages